User: anonymous   Login
Location: Caltech
(34.1382°N, 118.1253°W)
Time: 13:08:27
(UTC-08:00)
Language:

GPS 2-04 Rocket1 - Orbit

View from above orbital plane
View from above orbital plane
View from above satellite
View from above satellite

Ground track
Ground track

The orbit data is extracted from the following two-line orbital elements,

1 20303U 89085B   15030.36915719  .00010255  00000-0  44772-3 0  9752
2 20303 035.6329 036.7150 0128164 092.8334 046.8540 15.14264265368281
Epoch (UTC): 30 January 2015 08:51:35
Eccentricity: 0.0128164
inclination: 35.6329°
perigee height: 435 km
apogee height: 611 km
right ascension of ascending node: 36.7150°
argument of perigee: 92.8334°
revolutions per day: 15.14264265
mean anomaly at epoch: 46.8540°
orbit number at epoch: 36828

The dashed part of the orbit path shows where the satellite is in the earth's shadow,  

DLR